Overview Statistics Trail Chart Weather Telemetry Raw packets
 

This is the latest recevied weather packets stored in our database for station/object WA6ODQ-13. If no packets are shown the sender has not sent any weather packets the latest 10 day(s).

<< 73 74 75 76 77 78 79 >>
Time Temp. Humidity Pressure Rain* Wind** Luminosity Snow
1788145919 22.78° C 54% 1007.7 hPa 0 mm - 0 W/m² -
1788145618 23.33° C 54% 1007.7 hPa 0 mm - 0 W/m² -
1788145317 23.33° C 54% 1007.6 hPa 0 mm - 0 W/m² -
1788145016 23.33° C 53% 1007.6 hPa 0 mm - 0 W/m² -
1788144710 23.89° C 53% 1007.4 hPa 0 mm - 1 W/m² -
1788144408 23.89° C 53% 1007.6 hPa 0 mm - 1 W/m² -
1788144105 23.89° C 52% 1007.5 hPa 0 mm - 3 W/m² -
1788143804 24.44° C 51% 1007.8 hPa 0 mm - 4 W/m² -
1788143497 25° C 51% 1007.4 hPa 0 mm - 7 W/m² -
1788143193 25° C 50% 1007.6 hPa 0 mm - 9 W/m² -
1788142888 25° C 50% 1007.7 hPa 0 mm - 12 W/m² -
1788142586 25.56° C 49% 1007.5 hPa 0 mm - 14 W/m² -
1788142282 25.56° C 49% 1007.4 hPa 0 mm - 18 W/m² -
1788141978 26.11° C 49% 1007.7 hPa 0 mm - 19 W/m² -
1788141673 26.67° C 48% 1007.7 hPa 0 mm - 23 W/m² -
1788141369 26.67° C 48% 1007.6 hPa 0 mm - 38 W/m² -
1788141063 27.22° C 47% 1007.4 hPa 0 mm - 45 W/m² -
1788140758 27.22° C 47% 1007.6 hPa 0 mm - 52 W/m² -
1788140453 27.22° C 47% 1007.7 hPa 0 mm - 59 W/m² -
1788140160 27.78° C 46% 1007.8 hPa 0 mm - 67 W/m² -
1788139844 27.78° C 45% 1007.7 hPa 0 mm - 76 W/m² -
1788139544 27.22° C 46% 1007.8 hPa 0 mm - 85 W/m² -
1788139238 27.78° C 45% 1007.9 hPa 0 mm - 95 W/m² -
1788138938 27.78° C 45% 1008 hPa 0 mm - 106 W/m² -
1788138633 28.89° C 43% 1008.1 hPa 0 mm - 118 W/m² -

* Rain latest hour (hover to see other rain measurements)
** Current wind speed in m/s (hover to see current wind gust speed)